Notices

What's New in latest Release from April 7th, 2021:

- Updated Glossary, including Speed of Maximum Gust, and Total Hourly Precipitation

- Updated national and regional climate services offices contacts and prices information

- Addition of station inventory lists for 1981-2010, 1971-2000, and 1961-1990 Normals.

If you haven't already, please take our survey and provide feedback about our website: https://eccc.sondage-survey.ca/f/LanguageSelection.aspx?s=442ca660-fcf1-47c0-95a9-59707d6fd709

Hourly Data Report for April 29, 2017

KUGAARUK CLIMATE
NUNAVUT

68°32'15.060" N
89°47'47.020" W
15.80 m
2303094
71407
NBB

Download Data

Hourly Data (April 2017)
Hourly Data Report for April 29, 2017
TIME
LST
Temp Definition
°C
Dew Point Definition
°C
Rel Hum Definition
%
Precip. Amount Definition
mm

Wind Dir Definition
10's deg

Wind Spd Definition
km/h
Visibility Definition
km
Stn Press Definition
kPa
Hmdx Definition


Wind Chill Definition


Weather Definition


00:00 -21.6 -24.8 76 0.0 23 22   102.08   -33 LegendNANA
01:00 -22.4 -25.6 76 0.0 24 29   102.07   -36 LegendNANA
02:00 -23.3 -26.7 74 0.0 24 28   102.04   -36 LegendNANA
03:00 -23.3 -26.7 73 0.0 24 29   102.01   -37 LegendNANA
04:00 -23.2 -27.0 71 0.0 23 27   102.01   -36 LegendNANA
05:00 -22.8 -26.8 70 0.0 23 27   101.98   -36 LegendNANA
06:00 -21.9 -26.2 68 0.0 23 18   101.97   -32 LegendNANA
07:00 -20.5 -25.2 66 0.0 23 16   101.93   -30 LegendNANA
08:00 -19.8 -24.0 69 0.0 27 24   101.88   -31 LegendNANA
09:00 -19.3 -23.6 69 0.0 26 24   101.84   -31 LegendNANA
10:00 -19.0 -23.5 68 0.0 27 20   101.82   -29 LegendNANA
11:00 -19.3 -23.4 70 0.0 27 26   101.77   -31 LegendNANA
12:00 -18.7 -23.1 68 0.0 28 29   101.73   -31 LegendNANA
13:00 -18.0 -22.4 68 0.0 28 31   101.71   -30 LegendNANA
14:00 -17.0 -20.8 72 0.0 29 25   101.69   -28 LegendNANA
15:00 -16.8 -20.6 72 0.0 28 21   101.71   -27 LegendNANA
16:00 -16.3 -20.5 70 0.0 30 20   101.69   -26 LegendNANA
17:00 -16.3 -20.3 71 0.0 29 17   101.67   -25 LegendNANA
18:00 -16.1 -20.0 72 0.0 29 14   101.65   -24 LegendNANA
19:00 -16.2 -19.3 77 0.0 28 15   101.64   -24 LegendNANA
20:00 -15.9 -19.3 75 0.0 30 13   101.63   -23 LegendNANA
21:00 -16.0 -19.2 76 0.0 29 19   101.58   -25 LegendNANA
22:00 -16.0 -19.1 77 0.0 29 20   101.56   -25 LegendNANA
23:00 -15.9 -18.9 77 0.0 30 21   101.57   -26 LegendNANA

Notes on Data Quality.

Legend

  • E = Estimated
  • M = Missing
  • NA = Not Available*
  • [empty] = Indicates an unobserved value
Date modified: